FENGYUN 1C DEB, 30313

Orbit data source: Space-Track

FENGYUN 1C DEB, 30313 is space debris in SSO originally from a launch on Mon, 10 May 1999 UTC launched from the Taiyaun Space Center, China (TSC). Fengyun 1C debris stems from the Chinese weather satellite Fengyun-1C, which was intentionally destroyed by a Chinese anti-satellite missile in 2007. This event dramatically increased the amount of space debris, with thousands of trackable fragments posing hazards to satellites and human spaceflight. The Fengyun 1C debris cloud has become a focal point in discussions about space sustainability and the need for international regulations to prevent the creation of new debris.

Loading next visibility...
FENGYUN 1C DEB details
Identifier
30313, 1999-025AAA
Orbit
SSO
Last TLE update19 hours ago
Origin
Flag of CNCASC (CN / PRC)
ManufacturerUnknown
MissionSpacecraft
Bus & MotorUnknown
MassUnknown
Launch date (UTC)
1999-05-10 (26 years ago)
Launch vehicleUnknown
Launch site
Taiyaun Space Center, China (TSC)
Object type
Payload
Rocket body
Debris
Shape & HBRUnknown
Radar Cross SectionSmall (<0.1 m²)

Expand to show TLE details & history

TLE from 19 hours ago
0 FENGYUN 1C DEB
1 30313U 99025AAA 24355.80279388  .00006661  00000-0  30229-2 0  9996
2 30313  98.8893  72.6394 0061411 284.2224 192.5116 14.21173453920114
Epoch: 2024-12-20T19:16Z
Definitive object data (Epoch: 2024-12-20T19:16:01.391Z)
Latitude62.16658°
Longitude-109.0916°
Altitude875.187 km
Speed7.398 km/s
True Right ascension17h 59m 06s
True Declination62° 01' 36"
Sunlit
Object was in daylight at TLE epoch
Visualization TLE readout
Latitude9.44722°
Longitude-123.95614°
Altitude839.568 km
Speed7.425 km/s
Apparent Right ascension19h 50m 01s
Apparent Declination-25° 17' 27"
Sunlit
Object is in daylight
Visualization observer readout
Local Sidereal Time13:08:34
Azimuth104.097° ESE
Elevation-23.504°
Doppler factor1
Orbital elements
Apogee altitude862.748 km
Perigee altitude774.357 km
Semi-major axis7,196.69 km
Eccentricity0.0061411
Inclination98.8893°
RAAN72.6394°
Arg. of periapsis284.2224°
True anomaly192.36028°
Mean anomaly192.5116°
Eccentric anomaly192.43583°
Mean motion3.55504 °/min
BSTAR0.0030229
Orbital period101.26 mins
Loading maneuver chart data...
Loading historical data...
Loading historical data...
Loading historical data...
Loading historical data...
Loading historical data...
Loading historical data...
Loading historical data...

FENGYUN 1C DEB Visibility forecast

Observer location: undefined°, undefined

Span
Click to sort rows by Start time (UTC) header in descending order
Start Az.
Max El. time (UTC)
Max El. Az.
Max El.
End time (UTC)
End Az.
8 mins2024-12-21 17:17:30.499Z46.383° ENE2024-12-21 17:21:30.499Z102.689° ESE23.553°2024-12-21 17:25:30.499Z150.286° SSE
8 mins2024-12-21 18:57:30.499Z352.027° N2024-12-21 19:01:30.499Z283.399° WNW33.011°2024-12-21 19:05:30.499Z226.684° WSW
8 mins2024-12-22 04:39:30.499Z126.307° SE2024-12-22 04:42:30.499Z73.051° E33.149°2024-12-22 04:47:30.499Z1.835° NNE
7 mins2024-12-22 06:19:30.499Z218.642° SW2024-12-22 06:22:30.499Z259.589° W23.16°2024-12-22 06:26:30.499Z314.563° NW
|